Location: ?????
(54.9266°N, 38.5527°E)
Time: 19:39:40
(UTC+00:00)

Cosmos 1743 - Visible Passes

Search period start: 22 July 2024 00:00
Search period end: 01 August 2024 00:00
Orbit: 473 x 485 km, 82.5° (Epoch: 22 July)

Date Brightness Start Highest point End Pass type
(mag) Time Alt. Az. Time Alt. Az. Time Alt. Az.
22 Jul 3.8 22:49:18 14° SSE 22:52:00 35° E 22:55:22 10° NNE visible
23 Jul 4.0 00:23:57 10° SW 00:27:03 25° WNW 00:30:10 10° N visible
23 Jul 4.4 22:23:15 12° SE 22:25:44 23° E 22:28:41 10° NE visible
23 Jul 3.4 23:57:31 13° SW 00:00:31 37° WNW 00:03:59 10° N visible
24 Jul 4.9 21:57:12 10° ESE 21:59:28 16° E 22:01:44 10° NE visible
24 Jul 2.8 23:31:25 18° SSW 23:34:01 57° WNW 23:37:39 10° N visible
25 Jul 5.2 21:32:23 10° E 21:33:14 11° E 21:34:04 10° ENE visible
25 Jul 2.5 23:05:17 22° S 23:07:31 90° W 23:11:14 10° NNE visible
26 Jul 2.9 22:39:07 24° SSE 22:41:04 57° E 22:44:41 10° NNE visible
27 Jul 4.6 00:13:53 10° WSW 00:16:23 17° WNW 00:18:54 10° NNW visible
27 Jul 3.6 22:12:54 23° SE 22:14:37 36° E 22:18:01 10° NNE visible
27 Jul 4.1 23:47:09 13° WSW 23:49:41 24° WNW 23:52:45 10° N visible
28 Jul 4.3 21:46:39 18° SE 21:48:12 24° E 21:51:12 10° NE visible
28 Jul 3.6 23:20:54 19° SW 23:23:00 35° WNW 23:26:26 10° N visible
29 Jul 4.7 21:20:22 14° ESE 21:21:48 16° E 21:24:09 10° NE visible
29 Jul 2.9 22:54:36 27° SW 22:56:21 55° WNW 22:59:59 10° N visible
30 Jul 5.1 20:54:21 10° E 20:55:25 11° E 20:56:29 10° ENE visible
30 Jul 2.5 22:28:17 35° SSW 22:29:43 86° W 22:33:25 10° N visible
31 Jul 5.0 00:03:53 10° W 00:05:19 12° WNW 00:06:44 10° NW visible
31 Jul 2.8 22:01:55 37° SSE 22:03:07 59° E 22:06:45 10° NNE visible
31 Jul 4.7 23:36:09 11° WSW 23:38:27 17° WNW 23:40:53 10° NNW visible
